Flag for Ukraine Weather past 2 weeks in Luhansk, Ukraine

Now
84 °F

Scattered clouds.


Feels Like: 82 °F
Forecast: 59 / 82 °F
Wind: 17 mph from East

Location: Rostov-Na-Donu

Current Time: Sep 1, 2014 at 5:28:45 PM

Latest Report: Sep 1, 2014 at 5:00 PM


Visibility: N/A

Pressure: 29.95 "Hg

Humidity: 25%

Dew point: 45 °F

Location of LuhanskLocation

Historic Weather in Luhansk — Graph

°F

Luhansk temperature yesterday

Maximum temperature yesterday: 79 °F (at 1:30 PM)
Minimum temperature yesterday: 55 °F (at 1:00 AM)
Average temperature yesterday: 69 °F

Past Weeks' High & Low Weather Summary

 TemperatureHumidityPressure
High93 °F (Aug 17, 4:00 PM)89% (Aug 28, 9:00 PM)30.12 "Hg (Aug 28, 9:00 PM)
Low55 °F (Aug 31, 1:00 AM)11% (Aug 25, 1:00 PM)29.56 "Hg (Aug 18, 3:00 PM)
Average74 °F50%29.92 "Hg
* Reported Aug 17 4:00 PM — Sep 1 4:30 PM, Luhansk, Weather by CustomWeather, © 2014

Note: Actual official high and low records may vary slightly from our data, if they occured in-between our weather recording intervals... More about our weather records

Advertising

Luhansk weather history for previous 24 hours

 ConditionsComfort  
Time TempWeatherWind HumidityBarometerVisibility
4:30 PM
Sep 1
86 °FScattered clouds.20 mph24%29.95 "HgN/A
4:00 PM86 °FScattered clouds.20 mph25%29.95 "HgN/A
3:30 PM86 °FScattered clouds.22 mph27%29.95 "HgN/A
3:00 PM86 °FScattered clouds.22 mph27%29.95 "HgN/A
2:30 PM86 °FScattered clouds.17 mph27%29.98 "HgN/A
2:00 PM86 °FScattered clouds.20 mph27%29.98 "HgN/A
1:30 PM84 °FScattered clouds.20 mph29%29.98 "HgN/A
1:00 PM84 °FScattered clouds.20 mph31%29.98 "HgN/A
12:30 PM84 °FPassing clouds.20 mph31%30.01 "HgN/A
12:00 PM84 °FSunny.17 mph31%30.01 "Hg10 mi
11:30 AM82 °FSunny.17 mph32%30.01 "Hg10 mi
11:00 AM81 °FSunny.17 mph32%30.01 "Hg10 mi
10:30 AM79 °FSunny.17 mph32%30.04 "Hg10 mi
10:00 AM77 °FSunny.20 mph32%30.01 "Hg10 mi
9:30 AM75 °FSunny.22 mph34%30.04 "Hg10 mi
9:00 AM73 °FSunny.20 mph33%30.04 "Hg10 mi
8:30 AM70 °FSunny.17 mph38%30.04 "Hg10 mi
8:00 AM68 °FSunny.17 mph40%30.04 "Hg10 mi
7:30 AM66 °FSunny.17 mph43%30.04 "Hg10 mi
7:00 AM66 °FSunny.17 mph43%30.04 "Hg10 mi
6:30 AM64 °FClear.15 mph43%30.01 "Hg10 mi
6:00 AM64 °FClear.15 mph46%30.01 "Hg10 mi
5:30 AM64 °FClear.15 mph43%30.01 "Hg10 mi
5:00 AM64 °FClear.15 mph43%30.01 "Hg10 mi
4:30 AM64 °FClear.15 mph43%30.01 "Hg10 mi
4:00 AM64 °FClear.13 mph46%30.01 "Hg10 mi
3:30 AM64 °FClear.13 mph46%30.01 "Hg10 mi
3:00 AM64 °FClear.10 mph46%30.01 "Hg10 mi
2:30 AM64 °FClear.13 mph46%30.04 "Hg10 mi
2:00 AM66 °FClear.10 mph43%30.04 "Hg10 mi
1:30 AM66 °FClear.13 mph43%30.01 "Hg10 mi
1:00 AM66 °FClear.13 mph43%30.04 "Hg10 mi
12:30 AM66 °FClear.13 mph43%30.04 "Hg10 mi
12:00 AM66 °FClear.10 mph43%30.04 "Hg10 mi
11:30 PM
Aug 31
68 °FClear.13 mph40%30.04 "Hg10 mi
11:00 PM68 °FClear.13 mph38%30.04 "Hg10 mi
10:30 PM68 °FClear.13 mph35%30.04 "Hg10 mi
10:00 PM66 °FClear.10 mph37%30.04 "Hg10 mi
9:30 PM66 °FClear.10 mph35%30.04 "Hg10 mi
9:00 PM66 °FClear.10 mph35%30.04 "Hg10 mi
8:30 PM68 °FClear.10 mph33%30.04 "Hg10 mi
8:00 PM68 °FSunny.8 mph33%30.04 "Hg10 mi
7:30 PM68 °FSunny.8 mph35%30.04 "Hg10 mi
7:00 PM70 °FSunny.8 mph33%30.04 "Hg10 mi
6:30 PM75 °FSunny.8 mph27%30.04 "Hg10 mi
6:00 PM77 °FSunny.10 mph24%30.04 "Hg10 mi
5:30 PM79 °FSunny.10 mph23%30.04 "Hg10 mi
5:00 PM79 °FSunny.8 mph23%30.04 "Hg10 mi
Weather by CustomWeather, © 2014

See weather overviewHow to use our weather pages